This is the latest recevied weather packets stored in our database for station/object KN4FVH. If no packets are shown the sender has not sent any weather packets the latest 1 day(s).
| Time | Temp. | Humidity | Pressure | Rain* | Wind** | Luminosity | Snow |
|---|---|---|---|---|---|---|---|
| 1778020915 | 25° C | 47% | 1015.4 hPa | 0 mm | 0.45 m/s, 190° | 4 W/m² | - |
| 1778020612 | 25° C | 48% | 1015.5 hPa | 0 mm | 0 m/s | 4 W/m² | - |
| 1778020308 | 25° C | 47% | 1015.7 hPa | 0 mm | 0 m/s | 5 W/m² | - |
| 1778020004 | 25° C | 46% | 1015.6 hPa | 0 mm | 0.89 m/s, 137° | 6 W/m² | - |
| 1778019701 | 25° C | 45% | 1015.6 hPa | 0 mm | 0.89 m/s, 157° | 10 W/m² | - |
| 1778019398 | 25° C | 46% | 1015.7 hPa | 0 mm | 0.45 m/s, 188° | 12 W/m² | - |
| 1778019094 | 25° C | 46% | 1015.9 hPa | 0 mm | 0.89 m/s, 157° | 7 W/m² | - |
| 1778018792 | 25° C | 45% | 1016 hPa | 0 mm | 0.45 m/s, 217° | 5 W/m² | - |
| 1778018489 | 25° C | 45% | 1015.8 hPa | 0 mm | 0.45 m/s, 172° | 6 W/m² | - |
| 1778018187 | 25.56° C | 46% | 1015.9 hPa | 0 mm | 0.45 m/s, 157° | 7 W/m² | - |
| 1778017885 | 25.56° C | 45% | 1015.7 hPa | 0 mm | 0.45 m/s, 191° | 7 W/m² | - |
| 1778017583 | 25.56° C | 46% | 1015.7 hPa | 0 mm | 0.89 m/s, 157° | 8 W/m² | - |
| 1778017279 | 25.56° C | 45% | 1015.9 hPa | 0 mm | 0 m/s | 7 W/m² | - |
| 1778016977 | 25.56° C | 44% | 1015.9 hPa | 0 mm | 0.89 m/s, 131° | 7 W/m² | - |
| 1778016673 | 25.56° C | 45% | 1015.7 hPa | 0 mm | 0.45 m/s, 172° | 9 W/m² | - |
| 1778016369 | 26.11° C | 44% | 1015.5 hPa | 0 mm | 0.89 m/s, 160° | 8 W/m² | - |
| 1778016068 | 25.56° C | 46% | 1015.5 hPa | 0 mm | 0 m/s | 10 W/m² | - |
| 1778015764 | 25.56° C | 45% | 1015.7 hPa | 0 mm | 0.45 m/s, 185° | 8 W/m² | - |
| 1778015461 | 25.56° C | 45% | 1015.8 hPa | 0 mm | 0.45 m/s, 170° | 14 W/m² | - |
| 1778015157 | 25.56° C | 45% | 1015.7 hPa | 0 mm | 0.45 m/s, 178° | 13 W/m² | - |
| 1778014855 | 25.56° C | 45% | 1015.9 hPa | 0 mm | 1.34 m/s, 167° | 10 W/m² | - |
| 1778014552 | 25.56° C | 45% | 1015.9 hPa | 0 mm | 0 m/s | 11 W/m² | - |
| 1778014250 | 25.56° C | 43% | 1016 hPa | 0 mm | 0.45 m/s, 165° | 10 W/m² | - |
| 1778013947 | 25.56° C | 44% | 1016 hPa | 0 mm | 0 m/s | 11 W/m² | - |
| 1778013644 | 26.11° C | 42% | 1015.9 hPa | 0 mm | 0.45 m/s, 145° | 9 W/m² | - |
* Rain latest hour (hover to see other rain measurements)
** Current wind speed in m/s (hover to see current wind gust speed)